Temp
86 91 92 84 73 74 71 73 81 77 79 85 87 83 82 83 79 72 82 86 88 88 90 86 81 81 81 81 81 80 80 80 80 80 80 80 81 81 81 80 80 79 79 79 80 80 80 80 80
89 88 87 82 71 67 72 80 76 81 83 86 84 83 81 79 81 78 81 86 89 89 90 88 81 81 81 80 80 80 80 80 80 80 80 80 80 80 80 79 79 80 79 79 79 80 80 80 80
89 89 81 76 73 68 71 78 81 82 84 84 82 84 83 79 81 84 88 88 90 89 89 86 81 81 80 80 80 80 80 80 80 80 80 80 80 80 80 80 80 79 79 79 79 79 79 79 79
86 85 84 71 69 76 77 82 82 81 81 83 85 80 83 85 84 88 88 90 89 89 89 82 80 80 80 80 80 80 80 80 80 80 80 80 80 80 80 80 80 79 79 79 79 79 79 79 79
87 83 73 70 72 79 83 83 83 80 83 83 85 78 80 83 87 88 88 89 89 89 90 86 80 80 80 80 79 79 79 79 80 80 79 78 80 79 79 79 79 78 79 79 78 78 78 78 78
77 81 69 67 72 80 84 84 82 83 84 84 82 83 80 86 85 87 89 89 90 88 89 87 80 80 80 80 79 79 79 80 79 78 78 78 79 79 79 79 78 78 78 78 77 77 77 76 76
75 73 70 72 72 76 81 85 82 82 83 83 88 81 81 83 87 89 89 91 90 89 89 89 88 83 79 79 79 80 79 78 78 78 78 79 79 79 78 78 77 77 77 76 76 76 76 75 74
78 75 70 71 70 72 83 82 83 84 82 87 90 80 77 85 87 89 89 89 89 89 89 90 89 88 87 85 79 79 78 78 78 78 78 78 78 78 77 77 77 76 76 75 74 74 74 74 73
78 68 66 69 71 75 81 79 81 85 81 84 86 87 88 87 87 86 85 86 87 87 89 90 90 89 88 85 83 79 77 78 77 76 74 78 83 82 81 76 76 75 74 74 73 72 73 73 72
73 67 69 78 80 78 81 81 80 79 80 80 82 82 88 85 84 83 82 82 84 85 87 89 89 88 87 87 87 85 81 85 85 83 83 84 83 82 80 76 74 73 73 72 72 73 75 78 81
74 67 76 76 80 81 80 78 82 79 75 83 82 82 83 82 83 82 83 83 85 87 87 88 88 88 86 87 88 81 86 85 84 83 83 83 81 81 81 78 78 77 76 80 79 79 79 79 80
67 75 75 76 79 77 77 82 78 81 83 85 86 87 82 81 82 83 83 85 85 86 85 87 86 86 86 87 85 84 85 84 83 82 83 81 81 80 80 79 78 78 80 79 79 79 79 79 80
68 72 76 77 78 77 80 77 79 78 84 81 82 84 81 83 84 86 87 87 87 85 85 86 82 84 86 84 84 84 83 84 83 82 81 82 79 79 79 79 78 78 79 79 79 79 79 79 79
72 71 73 76 75 77 74 77 76 82 85 79 80 81 82 83 83 85 86 86 86 86 85 86 77 80 86 83 82 83 83 82 81 80 80 80 80 79 78 77 77 77 79 79 79 78 77 77 78
69 64 70 72 74 72 76 71 71 83 80 78 78 81 80 81 81 81 85 85 87 87 86 84 77 78 83 79 74 72 80 80 79 79 80 79 79 79 78 78 77 77 79 78 78 78 79 77 78
64 66 58 70 73 74 72 64 77 81 79 79 78 79 75 77 81 84 85 86 87 86 81 80 75 77 80 72 67 71 77 78 78 78 78 78 77 78 77 77 76 77 77 77 78 78 77 76 76
62 56 60 64 73 71 68 66 78 78 77 77 78 77 76 77 80 84 85 86 86 85 84 81 74 76 72 67 64 65 76 78 78 78 77 76 75 76 77 77 76 76 76 77 77 76 76 75 74
55 56 59 60 69 68 66 66 71 73 74 74 76 77 77 78 78 82 81 80 79 77 80 78 74 72 66 64 73 73 75 76 76 77 77 77 76 76 77 76 75 76 74 75 75 75 74 73 72
59 58 58 64 70 66 65 67 68 69 71 72 74 75 76 77 77 77 75 76 76 81 76 75 72 70 67 66 71 72 72 74 74 76 77 76 77 76 75 75 75 74 73 74 72 73 70 72 72
57 55 56 63 69 67 66 65 72 69 71 73 73 75 76 79 81 80 78 82 76 74 77 75 72 70 68 69 73 77 77 76 76 74 75 76 76 76 75 74 73 73 72 70 70 69 69 69 70
55 54 56 57 63 66 66 63 67 69 70 71 75 77 78 76 77 80 81 79 78 77 77 76 72 69 71 75 74 75 74 73 72 72 73 73 74 74 74 74 74 74 72 71 69 69 66 66 69
49 60 59 58 54 50 64 53 64 70 68 69 72 73 73 73 73 77 77 75 76 77 76 76 73 73 75 76 74 73 73 72 74 74 74 75 75 75 74 74 73 73 72 70 69 69 67 65 64
54 62 59 56 55 57 56 56 65 67 65 69 72 74 72 73 71 74 76 75 76 77 74 74 73 74 74 74 74 74 74 75 75 75 73 74 73 73 73 73 72 71 71 70 70 68 67 66 65
63 58 56 54 51 44 58 57 61 64 67 71 74 73 72 73 73 74 74 73 73 72 71 71 73 73 72 71 75 74 73 73 73 72 72 72 72 71 70 70 70 70 68 67 67 66 65 65 65
58 54 41 37 34 40 57 54 63 66 67 68 67 70 71 71 70 70 69 69 69 68 69 70 71 69 70 73 73 72 71 72 72 72 72 70 70 69 68 69 68 68 66 66 65 64 64 64 62
57 54 43 33 43 48 54 51 61 65 64 64 64 69 68 67 69 69 68 69 69 69 69 68 67 66 69 71 71 72 71 71 72 71 71 71 70 69 66 66 67 66 65 65 64 64 62 62 62
50 49 46 38 51 51 54 59 65 62 61 61 63 64 63 64 66 66 67 69 69 69 67 65 63 64 67 71 71 72 71 69 68 68 68 68 68 66 65 65 65 65 64 63 62 61 61 62 61
55 55 41 41 40 42 51 53 58 60 62 61 61 63 61 61 63 64 66 66 68 68 66 65 66 67 70 71 71 69 69 69 67 68 66 65 65 64 63 63 63 62 62 62 61 60 60 59 59
55 51 53 53 49 45 47 52 63 62 62 62 64 63 61 62 63 64 65 67 66 67 66 66 69 68 68 68 67 67 67 67 67 66 65 64 64 64 63 62 60 60 60 61 60 60 59 57 57
58 55 56 48 45 50 51 52 63 63 63 64 63 60 61 61 61 63 64 65 66 67 68 68 68 67 66 66 66 66 65 64 64 64 65 65 63 62 61 60 59 60 59 59 58 57 58 56 55
MSLP
1012.10 1011.71 1011.71 1011.50 1011.17 1009.51 1007.79 1007.35 1007.33 1007.29 1007.50 1007.82 1008.08 1008.25 1008.36 1008.93 1009.30 1010.85 1012.70 1012.83 1013.02 1013.53 1013.98 1014.97 1015.52 1015.69 1015.86 1016.04 1016.17 1016.40 1016.51 1016.55 1016.56 1016.61 1016.66 1016.68 1016.66 1016.68 1016.69 1016.73 1016.79 1016.85 1016.86 1016.71 1016.71 1016.67 1016.60 1016.46 1016.30
1012.01 1011.58 1011.47 1010.64 1009.73 1008.01 1006.97 1006.92 1007.04 1007.04 1007.53 1008.19 1008.60 1008.72 1008.76 1009.20 1010.51 1011.76 1012.46 1013.00 1013.10 1013.51 1014.05 1014.69 1015.65 1015.77 1016.01 1016.28 1016.49 1016.66 1016.84 1016.84 1016.85 1016.85 1016.90 1016.93 1016.99 1017.11 1017.14 1017.13 1017.22 1017.21 1017.14 1017.14 1017.01 1016.93 1016.79 1016.72 1016.53
1011.97 1011.43 1010.37 1009.71 1008.41 1007.34 1006.71 1006.78 1006.74 1007.54 1008.09 1008.10 1008.47 1009.09 1009.16 1009.83 1010.91 1011.38 1012.02 1012.69 1013.00 1013.55 1014.15 1014.93 1015.70 1015.94 1016.23 1016.48 1016.68 1016.85 1017.03 1017.14 1017.12 1017.18 1017.18 1017.19 1017.25 1017.34 1017.37 1017.40 1017.45 1017.45 1017.45 1017.40 1017.30 1017.25 1017.10 1017.04 1016.89
1011.63 1011.14 1010.31 1009.18 1007.60 1007.06 1006.87 1006.61 1007.06 1007.68 1008.30 1008.42 1008.24 1008.73 1009.96 1010.86 1011.03 1011.49 1012.48 1012.85 1013.18 1013.82 1014.37 1015.50 1015.88 1016.14 1016.41 1016.62 1016.84 1017.03 1017.16 1017.28 1017.33 1017.37 1017.46 1017.44 1017.41 1017.46 1017.55 1017.64 1017.69 1017.75 1017.74 1017.73 1017.68 1017.60 1017.46 1017.37 1017.29
1011.23 1010.21 1009.09 1008.20 1007.23 1006.74 1006.70 1006.91 1007.23 1007.41 1007.63 1007.94 1008.18 1008.77 1009.72 1011.04 1011.50 1012.06 1012.70 1013.02 1013.28 1013.82 1014.34 1015.40 1016.06 1016.34 1016.55 1016.81 1017.02 1017.18 1017.29 1017.39 1017.35 1017.31 1017.52 1017.70 1017.65 1017.82 1017.93 1018.03 1018.14 1018.12 1018.11 1018.10 1018.10 1018.00 1017.90 1017.74 1017.74
1010.34 1009.88 1008.51 1007.45 1006.87 1006.65 1006.50 1006.87 1007.18 1007.19 1007.35 1007.80 1008.15 1008.51 1009.82 1011.16 1011.65 1012.18 1012.68 1013.07 1013.38 1013.94 1014.41 1015.28 1016.16 1016.45 1016.71 1016.97 1017.18 1017.32 1017.45 1017.49 1017.50 1017.58 1017.74 1017.89 1018.05 1018.20 1018.30 1018.45 1018.56 1018.49 1018.56 1018.52 1018.55 1018.46 1018.39 1018.32 1018.27
1009.94 1009.22 1008.00 1007.29 1006.70 1006.42 1006.37 1006.89 1006.93 1007.16 1007.25 1007.46 1007.54 1008.09 1009.90 1010.90 1011.52 1012.19 1012.62 1013.01 1013.56 1013.99 1014.36 1014.91 1015.53 1016.26 1016.76 1016.99 1017.20 1017.31 1017.49 1017.74 1017.80 1017.91 1017.99 1018.24 1018.41 1018.52 1018.71 1018.89 1018.98 1019.00 1019.04 1019.02 1018.99 1018.89 1018.83 1018.83 1018.81
1010.27 1009.34 1007.89 1007.33 1006.70 1006.34 1006.33 1007.02 1007.02 1006.91 1007.09 1007.86 1007.85 1007.78 1009.03 1010.17 1011.40 1012.10 1012.67 1013.09 1013.53 1014.06 1014.30 1014.45 1015.03 1015.66 1016.12 1016.66 1017.26 1017.47 1017.66 1017.85 1018.04 1018.30 1018.44 1018.59 1018.74 1018.87 1019.14 1019.27 1019.40 1019.44 1019.52 1019.62 1019.66 1019.53 1019.42 1019.38 1019.35
1010.65 1009.33 1007.42 1006.85 1006.72 1006.38 1006.89 1006.96 1007.36 1007.57 1007.71 1007.86 1008.03 1007.99 1008.48 1010.06 1011.23 1011.87 1012.47 1012.96 1013.38 1013.87 1014.13 1014.39 1014.77 1015.25 1015.87 1016.58 1017.03 1017.58 1017.85 1018.09 1018.40 1018.80 1019.10 1018.97 1018.73 1018.96 1019.07 1019.73 1019.84 1019.91 1019.99 1020.06 1020.05 1019.99 1019.95 1019.80 1019.82
1009.97 1008.61 1007.29 1007.00 1006.71 1006.52 1006.47 1006.75 1007.28 1007.68 1007.68 1007.69 1008.04 1008.95 1009.12 1010.36 1010.91 1011.33 1011.86 1012.40 1012.94 1013.46 1013.92 1014.32 1014.61 1015.20 1015.77 1016.11 1016.60 1017.01 1017.68 1017.65 1017.98 1018.48 1018.75 1018.76 1018.99 1019.24 1019.66 1020.23 1020.39 1020.49 1020.55 1020.55 1020.51 1020.29 1020.01 1019.60 1019.58
1009.41 1008.08 1007.67 1007.39 1007.26 1007.03 1006.77 1006.92 1007.14 1007.04 1007.14 1006.81 1007.28 1008.50 1009.32 1010.14 1010.71 1011.21 1011.63 1012.14 1012.50 1013.07 1013.74 1014.19 1014.66 1015.08 1015.61 1015.90 1016.10 1017.32 1017.30 1017.88 1018.35 1018.63 1018.79 1018.93 1019.39 1019.71 1019.94 1020.44 1020.50 1020.60 1020.65 1020.24 1020.30 1020.19 1020.20 1020.14 1019.97
1009.52 1008.70 1008.35 1007.80 1007.45 1007.36 1006.90 1006.70 1006.85 1006.76 1006.42 1007.02 1007.60 1008.07 1009.42 1009.61 1010.06 1010.63 1011.18 1011.67 1012.32 1012.90 1013.63 1014.21 1014.69 1015.11 1015.52 1015.73 1016.36 1017.16 1017.36 1017.98 1018.37 1018.74 1018.98 1019.27 1019.54 1019.75 1019.98 1020.16 1020.57 1020.56 1020.53 1020.53 1020.50 1020.51 1020.58 1020.40 1020.32
1009.50 1008.97 1008.33 1008.11 1007.66 1007.44 1007.20 1006.81 1006.52 1006.77 1006.91 1007.78 1008.06 1008.16 1008.95 1009.33 1009.80 1010.42 1010.87 1011.45 1012.14 1012.83 1013.63 1014.25 1015.26 1015.34 1015.39 1016.18 1016.50 1016.99 1017.43 1017.84 1018.40 1018.84 1019.21 1019.36 1019.67 1019.76 1020.14 1020.32 1020.59 1020.77 1020.73 1020.68 1020.70 1020.62 1020.62 1020.64 1020.61
1009.47 1009.22 1008.59 1008.02 1007.70 1007.49 1007.26 1006.76 1006.95 1006.24 1006.81 1007.71 1007.96 1007.99 1008.80 1009.21 1009.53 1010.12 1010.63 1011.05 1011.74 1012.64 1013.45 1014.15 1015.45 1015.70 1015.56 1016.24 1016.69 1016.97 1017.55 1018.03 1018.62 1019.10 1019.44 1019.59 1019.75 1020.04 1020.30 1020.48 1020.74 1020.88 1020.98 1020.98 1020.99 1020.98 1020.95 1020.93 1020.80
1010.47 1009.59 1008.65 1007.82 1007.58 1007.44 1007.51 1006.59 1006.29 1006.14 1007.05 1007.28 1008.06 1008.00 1008.62 1009.38 1009.89 1010.09 1010.58 1011.11 1011.66 1012.38 1013.24 1014.02 1015.32 1015.84 1015.69 1016.83 1017.55 1017.80 1017.81 1018.33 1018.80 1019.14 1019.49 1019.79 1019.96 1020.09 1020.34 1020.53 1020.69 1020.97 1021.07 1021.20 1021.16 1021.15 1021.12 1020.95 1020.88
1010.06 1009.14 1008.08 1007.43 1007.28 1007.00 1007.44 1005.09 1005.66 1006.38 1006.70 1006.82 1007.59 1007.93 1008.70 1009.44 1009.78 1010.20 1010.78 1011.25 1011.83 1012.26 1013.14 1014.04 1014.94 1015.73 1016.18 1017.51 1018.30 1018.22 1018.23 1018.43 1018.86 1019.20 1019.56 1019.87 1020.21 1020.39 1020.53 1020.66 1020.87 1021.15 1021.30 1021.27 1021.19 1021.16 1021.12 1021.08 1021.03
1009.54 1008.04 1007.11 1006.95 1006.78 1006.87 1006.75 1005.33 1005.22 1006.32 1006.51 1006.74 1007.32 1007.98 1008.28 1009.13 1009.52 1009.99 1010.52 1011.11 1011.78 1012.35 1013.64 1014.39 1015.49 1015.66 1016.76 1017.81 1018.02 1018.54 1018.35 1018.42 1018.86 1019.19 1019.55 1019.98 1020.27 1020.52 1020.53 1020.62 1020.93 1021.16 1021.20 1021.18 1021.21 1021.34 1021.28 1021.17 1021.13
1008.66 1008.04 1007.35 1006.37 1006.42 1006.71 1006.23 1005.64 1005.96 1006.54 1006.50 1006.73 1007.17 1007.62 1007.78 1008.18 1008.84 1009.65 1010.46 1011.30 1011.92 1012.16 1013.58 1014.47 1015.66 1016.07 1017.35 1018.18 1017.96 1018.30 1018.46 1018.63 1018.93 1019.07 1019.34 1019.74 1020.18 1020.44 1020.48 1020.75 1020.91 1021.06 1021.16 1021.20 1021.34 1021.28 1021.47 1021.48 1021.40
1009.60 1008.63 1007.35 1006.43 1006.34 1006.17 1005.63 1005.64 1005.99 1006.46 1006.61 1006.68 1006.98 1007.38 1007.53 1007.86 1008.59 1009.28 1010.47 1011.15 1011.37 1012.26 1013.42 1014.26 1015.25 1016.17 1017.03 1017.43 1017.35 1017.74 1017.97 1018.39 1018.85 1018.99 1019.23 1019.59 1019.97 1020.33 1020.59 1020.64 1020.81 1021.15 1021.15 1021.20 1021.45 1021.46 1021.45 1021.30 1021.49
1009.83 1008.95 1007.72 1006.90 1005.98 1006.00 1005.38 1005.10 1005.23 1006.00 1006.14 1006.31 1006.67 1006.94 1007.16 1007.45 1008.00 1008.78 1010.06 1010.42 1011.40 1012.11 1012.92 1013.90 1014.94 1016.00 1016.62 1017.00 1016.98 1017.17 1017.58 1018.11 1018.49 1018.98 1019.23 1019.58 1019.94 1020.19 1020.48 1020.68 1020.87 1021.03 1021.16 1021.33 1021.42 1021.55 1021.35 1021.44 1021.65
1009.53 1008.81 1008.01 1007.16 1006.61 1006.26 1005.16 1004.70 1004.68 1005.63 1005.97 1006.38 1006.45 1006.72 1007.03 1007.52 1007.92 1008.37 1009.04 1009.83 1010.85 1011.76 1012.52 1013.42 1014.65 1015.49 1015.96 1016.19 1016.76 1017.11 1017.80 1018.32 1018.56 1018.90 1019.17 1019.62 1019.95 1020.18 1020.47 1020.54 1020.61 1020.72 1020.96 1020.96 1021.21 1021.40 1021.54 1021.21 1021.39
1008.98 1008.56 1008.14 1007.57 1007.22 1005.79 1005.30 1003.69 1003.59 1004.27 1005.09 1005.71 1006.03 1006.51 1007.00 1007.61 1008.30 1008.58 1009.13 1010.01 1010.64 1011.39 1012.46 1013.24 1014.10 1014.72 1015.28 1015.73 1016.22 1016.50 1016.90 1017.27 1017.76 1018.29 1018.88 1019.23 1019.66 1019.88 1020.18 1020.31 1020.50 1020.55 1020.68 1020.80 1020.92 1021.14 1021.33 1021.46 1021.07
1008.63 1008.51 1008.24 1008.11 1007.14 1005.70 1005.10 1003.97 1002.43 1003.85 1004.08 1004.57 1005.25 1005.82 1006.88 1007.36 1008.15 1008.53 1009.13 1009.90 1010.69 1011.35 1012.37 1012.93 1013.82 1014.30 1014.87 1015.55 1016.04 1016.32 1016.68 1017.02 1017.66 1018.17 1018.61 1018.96 1019.44 1019.78 1019.94 1020.08 1020.14 1020.35 1020.46 1020.53 1020.68 1020.95 1021.19 1021.31 1021.18
1008.54 1008.65 1008.80 1008.55 1008.03 1006.51 1004.48 1004.00 1002.42 1003.13 1003.65 1004.03 1004.72 1005.67 1006.64 1007.34 1008.19 1008.79 1009.34 1010.08 1010.87 1011.79 1012.34 1012.89 1013.42 1014.03 1014.95 1015.54 1015.95 1016.35 1016.73 1017.15 1017.60 1018.04 1018.35 1018.85 1019.30 1019.65 1019.89 1020.10 1020.15 1020.31 1020.50 1020.71 1020.87 1021.06 1021.16 1021.16 1021.25
1008.88 1008.41 1008.78 1009.31 1008.20 1006.57 1004.94 1004.51 1002.75 1003.75 1004.41 1005.02 1005.62 1006.17 1007.10 1007.88 1008.62 1009.16 1009.79 1010.49 1011.25 1011.90 1012.43 1013.04 1013.53 1014.35 1015.06 1015.55 1016.09 1016.63 1017.01 1017.29 1017.50 1017.86 1018.15 1018.71 1019.06 1019.50 1019.92 1020.10 1020.28 1020.46 1020.87 1021.00 1021.10 1021.10 1021.12 1021.17 1021.26
1008.66 1008.74 1009.22 1008.60 1007.04 1005.37 1005.76 1004.20 1003.48 1004.50 1005.41 1006.14 1006.80 1006.96 1007.94 1008.64 1009.20 1009.71 1010.25 1010.84 1011.50 1012.05 1012.73 1013.33 1013.90 1014.66 1015.17 1015.76 1016.25 1016.71 1017.16 1017.44 1017.76 1018.14 1018.42 1018.74 1019.11 1019.60 1020.11 1020.38 1020.50 1020.67 1020.82 1020.94 1021.08 1021.10 1021.18 1021.18 1021.26
1009.27 1009.75 1011.45 1010.73 1007.34 1005.58 1004.92 1004.19 1004.30 1005.18 1005.88 1006.64 1007.22 1007.92 1008.78 1009.39 1009.87 1010.37 1010.89 1011.28 1011.84 1012.42 1013.17 1013.78 1014.44 1015.01 1015.56 1015.85 1016.33 1016.75 1017.26 1017.72 1018.14 1018.60 1018.91 1019.18 1019.53 1019.97 1020.34 1020.50 1020.61 1020.78 1020.98 1021.12 1021.20 1021.16 1021.05 1021.06 1021.11
1009.54 1010.18 1011.11 1010.62 1007.57 1005.38 1004.57 1004.26 1003.90 1004.97 1005.71 1006.90 1007.71 1008.40 1009.43 1010.10 1010.59 1011.04 1011.45 1011.94 1012.37 1013.06 1013.71 1014.27 1014.74 1015.13 1015.61 1016.09 1016.59 1017.15 1017.60 1018.08 1018.56 1018.87 1019.20 1019.53 1019.89 1020.22 1020.46 1020.67 1020.82 1021.02 1021.03 1021.06 1021.14 1021.18 1021.07 1021.01 1020.90
1009.18 1009.24 1009.04 1008.43 1007.72 1005.82 1004.37 1004.72 1005.35 1005.63 1006.29 1007.03 1007.91 1009.02 1009.90 1010.54 1011.07 1011.55 1012.01 1012.58 1013.09 1013.66 1014.19 1014.70 1015.13 1015.62 1016.12 1016.69 1017.24 1017.66 1018.09 1018.48 1018.81 1019.11 1019.52 1019.87 1020.20 1020.44 1020.66 1020.79 1020.89 1020.92 1020.99 1020.94 1020.89 1020.79 1020.71 1020.66 1020.58
1009.54 1008.80 1008.32 1007.69 1007.27 1006.75 1005.98 1005.76 1006.13 1006.43 1006.91 1007.53 1008.59 1009.71 1010.57 1011.29 1011.82 1012.23 1012.71 1013.14 1013.55 1014.02 1014.54 1015.07 1015.65 1016.19 1016.81 1017.33 1017.64 1018.07 1018.57 1018.93 1019.17 1019.44 1019.73 1020.05 1020.25 1020.63 1020.73 1020.83 1020.90 1020.92 1020.92 1020.88 1020.73 1020.58 1020.45 1020.26 1020.08
Wind_Speed
5 9 4 5 6 6 9 4 3 6 6 3 7 5 3 6 5 5 8 7 15 14 14 13 11 11 10 9 9 9 9 9 10 9 9 9 10 10 10 10 13 12 12 12 12 11 11 12 11
4 7 4 2 7 9 7 5 8 6 3 8 6 5 5 4 5 11 11 11 16 13 12 13 12 12 11 10 10 9 9 9 9 10 10 10 11 10 10 10 11 11 11 11 11 11 11 12 10
6 5 4 4 8 10 8 2 4 6 10 8 6 2 1 5 5 14 9 17 16 13 11 13 13 12 12 11 11 10 9 9 10 10 10 11 11 11 11 11 11 11 11 11 11 11 12 12 11
5 4 4 7 13 10 11 3 4 11 6 4 3 6 4 4 10 7 16 17 15 13 12 15 14 13 12 12 11 10 10 9 9 10 10 11 12 12 12 11 11 11 11 13 13 13 13 13 13
4 4 8 11 15 13 9 3 7 11 9 9 9 8 5 7 7 15 16 14 14 13 12 14 13 13 12 11 10 10 10 9 8 8 8 7 12 13 13 12 13 13 14 14 14 15 15 14 14
6 4 9 13 15 11 9 6 8 11 8 8 8 11 7 10 13 16 15 14 13 13 12 14 13 12 12 11 10 10 9 8 8 10 12 13 12 13 13 13 13 13 14 14 15 16 17 17 16
10 9 14 16 14 12 12 8 11 14 11 11 6 11 8 13 15 16 15 14 13 13 11 12 13 12 11 11 10 10 10 7 11 12 13 13 12 13 13 13 13 13 13 14 14 16 17 17 17
5 7 16 14 14 16 4 9 5 12 13 3 9 8 9 15 18 16 14 14 14 12 11 12 12 12 12 12 11 8 10 11 12 12 12 12 12 13 13 12 12 13 14 14 14 14 16 17 17
3 9 14 19 16 13 4 10 4 5 6 8 9 3 5 23 21 17 16 15 13 12 12 11 11 11 10 9 10 9 10 12 15 12 10 7 6 8 8 13 12 14 14 14 14 14 12 12 15
11 13 20 15 15 10 6 9 11 10 13 9 10 5 15 24 22 21 19 16 17 16 14 12 11 12 11 7 11 9 10 7 6 7 7 5 7 7 10 11 13 14 14 14 14 12 10 7 7
11 20 15 12 15 10 10 9 7 11 12 15 16 14 22 24 21 20 19 18 17 17 13 14 12 12 11 8 7 4 5 5 5 8 6 6 6 5 5 5 5 6 5 5 7 8 8 10 7
14 16 17 13 10 8 12 6 9 14 9 5 8 17 20 23 22 22 20 19 18 17 16 15 13 12 11 7 6 7 5 5 5 5 7 5 4 5 5 5 6 5 4 6 6 6 8 9 10
18 17 14 15 19 14 10 14 14 14 12 4 5 16 22 21 21 19 18 17 18 17 16 16 13 11 11 9 5 7 6 6 6 5 6 4 5 5 5 5 5 4 4 5 5 6 6 7 9
8 11 20 19 15 15 14 15 7 11 10 7 12 18 19 20 21 19 19 18 18 17 17 16 14 13 11 8 10 7 6 5 5 5 5 6 5 5 6 5 5 5 4 4 5 5 5 5 6
12 18 18 17 22 13 14 22 14 9 9 14 12 13 14 16 17 19 17 18 17 16 16 17 15 13 12 9 5 3 5 6 5 5 7 7 6 7 7 5 5 5 4 5 4 5 3 4 4
11 15 19 19 16 18 14 24 20 10 11 14 15 12 11 15 17 17 16 15 15 15 16 16 13 14 11 8 4 3 5 6 6 6 5 7 7 7 6 5 5 4 3 3 2 2 2 3 4
13 15 18 19 13 16 18 20 19 11 12 12 14 15 15 16 16 17 16 15 14 12 13 14 13 13 11 10 7 4 8 6 6 6 6 8 7 8 6 5 5 5 3 3 2 1 2 3 3
14 17 19 19 17 15 17 18 6 11 13 12 12 15 15 15 18 16 15 13 11 13 14 12 11 11 10 7 8 6 6 5 5 6 6 10 7 8 6 5 5 5 4 3 2 1 0 3 4
16 17 21 18 17 17 22 18 12 11 11 13 12 13 13 15 14 17 13 14 13 14 14 16 14 14 10 8 9 8 8 7 6 6 8 9 7 8 7 5 5 4 4 3 3 2 4 3 3
17 18 19 18 17 17 19 20 16 12 13 14 15 14 14 12 13 13 16 17 15 14 16 15 14 14 11 9 8 6 7 6 6 5 7 8 8 8 6 6 5 5 4 5 5 4 4 4 4
18 18 19 18 12 16 15 19 21 12 11 12 13 12 12 13 14 15 16 16 15 16 16 16 16 15 14 13 9 6 6 5 5 6 6 6 7 7 7 7 6 6 5 5 5 6 6 6 3
19 18 21 16 11 13 15 12 20 18 16 15 15 13 12 11 9 10 12 14 15 14 13 15 14 17 14 15 12 12 8 7 6 6 6 6 8 8 7 7 7 7 5 7 6 6 7 6 7
17 15 16 19 13 18 11 10 11 7 16 17 16 16 15 13 14 12 12 11 12 13 13 12 14 15 14 13 10 9 7 5 4 5 7 6 5 6 7 8 8 8 6 7 7 7 7 6 6
10 10 12 2 3 8 14 13 11 10 11 11 8 12 13 11 8 8 7 9 10 10 11 12 15 13 13 10 10 8 8 7 5 5 5 5 4 4 5 5 5 5 5 5 5 5 6 5 6
8 10 4 5 4 4 2 7 7 5 3 0 1 8 8 6 6 6 8 9 10 11 12 12 13 13 12 11 9 8 6 6 5 5 4 5 4 4 4 3 4 3 3 2 2 4 5 6 7
7 10 2 4 5 7 4 7 3 5 2 1 1 5 6 5 5 6 7 8 10 11 12 11 13 11 11 10 9 7 6 4 3 4 3 3 3 3 4 4 3 3 3 3 3 4 5 6 7
2 2 6 7 3 3 5 5 7 1 2 2 5 7 6 5 5 6 7 8 10 11 11 13 11 9 10 10 8 7 6 6 6 6 5 3 4 4 4 3 3 2 3 4 5 5 8 8 9
3 11 4 7 2 3 5 1 4 3 3 5 7 7 6 6 7 8 9 10 10 11 11 12 11 12 11 10 9 8 8 7 6 5 5 4 4 4 4 3 3 3 5 6 6 7 9 10 9
2 5 6 2 4 5 3 7 6 7 6 6 7 7 8 9 9 10 11 11 11 12 12 12 12 13 11 10 9 9 7 6 5 5 4 4 3 2 2 3 5 6 7 8 9 10 11 12 12
7 6 6 4 3 3 3 4 5 6 4 5 9 8 9 10 10 11 12 12 13 13 12 12 11 11 10 9 8 7 6 5 5 4 3 2 2 3 4 5 6 7 8 9 11 12 12 13 14
Wind_Direction
179 167 162 205 245 239 256 235 281 187 190 127 139 196 231 4 330 17 134 139 135 150 143 156 150 153 145 133 119 113 112 110 107 106 101 93 86 76 67 60 67 67 64 61 55 57 57 53 58
193 152 189 246 252 241 245 227 231 206 103 142 141 166 191 104 82 119 146 155 150 146 150 143 150 147 140 132 127 123 120 115 112 109 107 103 97 92 88 84 78 75 77 73 70 65 61 54 62
208 219 227 234 246 249 265 213 239 148 143 163 139 311 71 101 112 148 123 154 151 148 147 131 152 146 141 137 133 130 124 120 115 113 113 114 110 104 97 89 85 84 82 78 70 63 59 58 64
190 199 208 235 238 241 259 291 181 158 168 207 180 142 126 21 143 143 145 151 152 147 150 136 149 149 146 142 138 135 132 125 123 123 125 123 121 111 97 90 84 79 85 74 69 65 61 62 73
207 243 236 237 246 250 241 266 185 188 178 175 193 142 111 122 110 134 147 154 149 150 141 148 151 151 149 146 143 141 136 131 137 127 116 106 108 96 88 87 82 74 79 78 71 66 64 68 70
200 262 235 234 237 240 254 210 183 203 192 161 190 150 123 129 147 147 150 153 151 146 147 140 151 153 152 151 151 145 143 143 102 95 108 109 100 99 97 91 85 83 82 78 74 70 68 67 66
239 219 239 247 248 246 240 176 198 199 196 185 156 165 118 156 150 152 154 151 153 152 153 153 156 156 160 159 159 152 147 121 108 109 105 98 106 103 97 93 90 87 82 77 74 71 69 67 66
241 254 241 235 243 246 200 194 236 204 203 88 192 180 168 158 156 155 153 152 156 158 163 155 156 164 164 156 170 157 137 130 117 106 106 113 104 102 99 102 89 87 84 78 73 70 68 66 62
233 238 234 228 232 237 158 206 193 144 164 200 187 301 119 147 157 158 160 160 160 165 169 156 163 158 153 159 147 151 135 120 110 111 109 134 119 119 102 82 92 88 84 79 75 72 70 79 67
221 231 236 246 238 247 221 223 168 184 193 201 187 135 144 157 164 166 168 167 170 171 170 168 168 158 170 166 160 152 150 149 124 133 139 116 117 82 85 87 88 86 85 78 71 67 69 57 50
225 244 239 245 245 251 228 205 196 208 206 211 204 163 158 166 171 174 173 175 175 172 168 177 170 170 172 180 162 139 144 133 134 141 137 119 121 134 110 125 118 111 91 82 75 66 51 55 55
252 243 255 239 246 230 223 217 210 217 210 197 239 161 172 176 179 180 179 177 177 176 174 175 173 173 184 180 187 168 150 149 143 146 134 144 139 137 131 120 118 112 98 87 71 70 66 64 50
249 255 248 247 250 241 245 224 226 223 229 177 198 170 185 187 183 183 183 178 178 179 176 176 177 186 183 178 175 166 149 166 147 151 150 143 144 143 133 133 119 107 98 84 79 68 65 53 50
302 288 254 249 249 242 230 234 207 226 207 201 176 185 195 195 188 181 187 182 180 180 181 173 183 193 189 179 177 171 161 148 151 149 158 158 143 146 148 139 129 116 102 87 73 66 61 55 43
279 270 263 243 240 246 229 246 226 234 196 199 198 188 190 202 192 195 188 187 185 181 182 181 183 197 188 169 152 137 161 159 163 162 163 161 159 157 155 145 143 128 107 100 94 78 59 58 41
267 260 248 237 231 223 213 240 223 194 192 204 197 190 185 207 199 199 191 194 191 185 192 182 170 193 176 161 157 128 172 162 163 164 166 165 168 166 162 158 147 141 134 125 112 81 64 28 9
232 253 240 245 215 221 208 240 242 182 201 204 195 191 194 194 197 199 192 195 196 189 201 194 184 173 166 164 137 175 178 165 165 167 170 170 170 179 178 174 161 167 164 178 172 127 355 350 6
258 247 244 253 214 222 218 233 199 197 195 193 190 188 195 191 197 190 183 180 186 184 209 190 191 164 152 145 155 160 171 163 170 177 178 175 180 186 191 188 183 183 189 200 217 272 1 342 341
275 264 264 241 240 215 226 220 199 188 194 188 191 189 199 198 195 175 187 197 186 195 195 187 181 172 166 188 165 171 178 170 182 181 180 182 184 190 202 201 198 205 229 229 248 247 270 261 311
255 254 249 260 226 219 228 223 217 190 202 196 196 197 210 209 191 188 195 197 193 187 195 180 188 181 180 183 170 175 170 185 180 178 181 190 198 199 208 211 217 215 223 226 234 241 263 282 284
248 251 234 247 209 224 238 227 220 216 211 212 213 209 205 210 204 205 201 198 193 196 193 182 187 181 182 174 161 154 123 150 174 185 189 199 204 207 217 221 229 226 238 245 237 237 244 274 234
252 244 238 243 226 212 212 221 209 209 210 213 210 204 200 200 212 200 198 197 196 198 185 185 181 178 179 170 172 170 177 179 191 185 193 192 207 214 223 236 238 247 239 247 244 241 248 246 262
253 255 228 241 240 239 192 235 138 185 217 216 220 217 209 197 207 208 210 198 193 184 190 179 175 176 171 171 175 169 176 148 158 167 183 202 192 223 225 233 233 240 238 252 253 242 241 248 262
263 235 215 244 262 227 201 229 203 187 214 203 209 198 201 187 188 199 183 172 172 171 168 168 172 166 162 164 172 170 162 162 164 159 176 185 189 191 210 225 234 245 248 245 239 241 246 248 256
214 231 201 204 189 211 161 205 243 138 173 289 130 186 176 161 174 158 159 166 161 165 161 164 157 155 157 162 163 161 158 163 180 183 197 183 184 192 167 185 178 166 155 172 209 236 251 258 266
200 217 311 292 187 127 139 206 151 30 69 17 27 138 145 154 148 147 149 156 157 156 152 149 143 141 151 155 157 154 153 164 169 180 190 182 176 150 154 147 158 171 192 224 247 263 271 283 271
113 130 74 324 256 217 153 207 183 161 141 113 135 148 121 107 120 124 131 144 142 142 137 134 127 131 144 146 146 146 145 139 127 128 133 136 126 130 142 167 194 215 250 277 291 285 282 277 276
294 144 122 213 298 121 136 1 24 79 187 142 148 136 109 107 113 115 119 125 125 121 122 125 131 134 132 131 123 120 114 119 128 140 135 135 125 149 177 198 240 269 279 278 276 278 279 281 279
120 179 217 274 308 358 59 83 24 27 15 157 138 116 114 115 115 116 117 117 117 120 123 123 125 127 122 113 117 119 122 128 134 133 132 151 166 177 221 247 266 272 284 289 285 282 281 278 278
282 313 292 290 124 29 357 46 30 15 25 145 128 119 115 114 117 119 121 125 123 121 122 120 120 115 114 118 123 120 123 130 142 158 162 177 209 215 258 273 280 285 285 286 286 286 285 284 281